W4BRM Weather Reports


time (UTC)temp
F
wind
direction
speed
knots
gust
knots
rain 1hr
in
rain 24hr
in
rain mn
in
humidity
%
barometer
mb
20260504150416 62 348 0.0 1.7 0.00 0.00 0.00 41 1011.6
20260504140341 60 347 0.0 0.0 0.00 0.00 0.00 46 1011.8
20260504130407 57 347 0.0 0.0 0.00 0.00 0.00 56 1012.0
20260504110350 54 345 284.2 0.0 0.00 0.00 0.00 1012.6
20260504100357 0 0.0 0.0 0.00 0.00 0.00 1012.2
20260504080347 55 345 0.0 0.0 0.00 0.00 0.00 37 1012.6
20260504070350 52 345 0.0 0.0 0.00 0.00 0.00 43 1012.7
20260504050340 54 345 0.0 0.0 0.00 0.00 0.00 38 1013.3
20260504043341 54 345 0.0 0.0 0.00 0.00 0.00 38 1013.3
20260504040349 55 345 0.0 0.0 0.00 0.00 0.00 32 1013.0
20260504033348 55 345 0.0 0.0 0.00 0.00 0.00 33 1013.1
20260504030352 55 345 0.0 0.0 0.00 0.00 0.00 33 1013.2
20260504023355 56 345 0.0 0.0 0.00 0.00 0.00 32 1013.0
20260504020343 56 345 0.0 0.0 0.00 0.00 0.00 33 1012.7
20260504013344 55 345 0.0 0.0 0.00 0.00 0.00 34 1012.5
20260504010343 54 345 0.0 0.0 0.00 0.00 0.00 35 1012.2
20260504003342 54 345 0.0 0.0 0.00 0.00 0.00 36 1012.2
20260504000348 55 345 0.0 0.0 0.00 0.00 0.00 38 1012.1
20260503233407 57 345 0.0 0.0 0.00 0.00 0.00 35 1011.7
20260503230345 58 345 0.0 0.0 0.00 0.00 0.00 32 1011.6
20260503223404 58 345 0.0 0.0 0.00 0.00 0.00 32 1011.7
20260503220346 58 345 0.0 0.0 0.00 0.00 0.00 33 1011.9
20260503213409 58 345 0.0 0.9 0.00 0.00 0.00 31 1011.6
20260503210412 57 345 0.0 0.9 0.00 0.00 0.00 31 1011.7
20260503203354 57 345 0.0 1.7 0.00 0.00 0.00 32 1012.0
20260503200340 56 347 0.0 0.9 0.00 0.00 0.00 32 1012.1
20260503193341 56 349 0.0 3.5 0.00 0.00 0.00 32 1012.5
20260503190403 55 349 0.0 11.3 0.00 0.00 0.00 34 1012.9
20260503183344 55 350 0.0 0.9 0.00 0.00 0.00 37 1013.1
20260503180351 54 350 0.0 3.5 0.00 0.00 0.00 38 1013.2
20260503173353 53 351 0.0 1.7 0.00 0.00 0.00 39 1013.6
20260503170341 51 350 0.0 2.6 0.00 0.00 0.00 43 1013.8